{"data":{"norad_id":58732,"epoch":"2026-05-25T01:24:29.273760Z","epoch_age_seconds":73042,"freshness":"FRESH","line1":"1 58732U 24005E   26145.05867215  .00000432  00000+0  25226-4 0  9997","line2":"2 58732  43.0038 148.4427 0001946 278.0557  82.0074 15.27576562132114","mean_motion":15.27576562,"eccentricity":0.0001946,"inclination_deg":43.0038,"raan_deg":148.4427,"arg_perigee_deg":278.0557,"mean_anomaly_deg":82.0074,"bstar":2.5226e-5,"rev_number":13211,"period_min":94.26696087263,"perigee_km":481.72420185015,"apogee_km":484.3945794854,"semimajor_km":6861.1963906678,"source":"CELESTRAK","updated_at":"2026-05-25T13:38:18.719347Z"}}